Le nostre stazioni meteo in Italia

Pubblicità
Il mio iltempo24.it
Lecce, Italia (16332): Temperatura & dewpoint: 05.12.2018 02:00:00 - 11.12.2018 02:00:00 (CET)Lecce, Italia (16332): velocità del vento: 05.12.2018 02:00:00 - 11.12.2018 02:00:00 (CET)Lecce, Italia (16332): direzione del vento: 05.12.2018 02:00:00 - 11.12.2018 02:00:00 (CET)Lecce, Italia (16332): reduced air pressure: 05.12.2018 02:00:00 - 11.12.2018 02:00:00 (CET)Lecce, Italia (16332): visibility: 05.12.2018 02:00:00 - 11.12.2018 02:00:00 (CET)
Data & Tempo tt [°C] td [°C] ff [km/h] ff [kn] dd ppp [hPa] vv [km]
11.12.2018 02:00:00 9,0 7,0 16 9 N - 10
11.12.2018 01:00:00 10,0 7,8 16 9 N 1012,2 10
11.12.2018 00:00:00 8,0 8,0 11 6 NO - 10
10.12.2018 23:00:00 8,0 7,0 9 5 NO - 10
10.12.2018 22:00:00 8,4 7,7 9 5 ONO 1011,5 10
10.12.2018 21:00:00 9,0 7,0 9 5 ONO - 10
10.12.2018 20:00:00 11,0 7,0 9 5 N - 10
10.12.2018 19:00:00 11,4 6,1 9 5 N 1011,1 10
10.12.2018 18:00:00 13,0 6,0 16 9 NNO - 10
10.12.2018 17:00:00 14,0 5,0 22 12 NNO - 10
10.12.2018 16:00:00 16,0 5,6 15 8 N 1010,4 10
10.12.2018 15:00:00 16,0 5,0 28 15 NNO - 10
10.12.2018 14:00:00 14,0 6,0 16 9 NNO - 10
10.12.2018 13:00:00 14,0 6,8 26 14 O 1010,5 10
10.12.2018 12:00:00 14,0 7,0 29 16 NO - 10
10.12.2018 11:00:00 14,0 9,0 28 15 NO - 10
10.12.2018 10:00:00 13,0 11,1 16 9 NO 1010,5 10
10.12.2018 09:00:00 12,0 10,0 21 11 ONO - 10
10.12.2018 08:00:00 10,0 8,0 13 7 NNO - 10
10.12.2018 07:00:00 8,2 7,6 8 4 ONO 1008,1 10
10.12.2018 06:00:00 9,0 9,0 13 7 ONO - 10
10.12.2018 05:00:00 10,0 8,0 13 7 O - 10
10.12.2018 04:00:00 10,0 7,8 13 7 O 1007,1 10
10.12.2018 03:00:00 10,0 8,0 13 7 ONO - 10
10.12.2018 02:00:00 10,0 9,0 11 6 ONO - 10
10.12.2018 01:00:00 10,2 9,1 11 6 O 1006,7 10
10.12.2018 00:00:00 13,0 12,0 9 5 O - 10
09.12.2018 23:00:00 13,0 12,0 9 5 O - 10
09.12.2018 22:00:00 14,0 11,9 11 6 OSO 1008,2 10
09.12.2018 21:00:00 14,0 12,0 16 9 OSO - 10
09.12.2018 20:00:00 12,0 9,0 13 7 S - 10
09.12.2018 19:00:00 11,8 8,5 13 7 S 1009,5 10
09.12.2018 18:00:00 12,0 10,0 11 6 S - 10
09.12.2018 17:00:00 12,0 9,0 15 8 S - 10
09.12.2018 16:00:00 14,8 9,6 15 8 OSO 1010,7 10
09.12.2018 15:00:00 15,0 6,0 9 5 SO - 10
09.12.2018 14:00:00 15,0 6,0 13 7 OSO - 10
09.12.2018 13:00:00 14,6 3,1 21 11 O 1012,7 10
09.12.2018 12:00:00 14,0 7,0 15 8 ONO - 10
09.12.2018 11:00:00 13,0 7,0 18 10 ONO - 10
09.12.2018 10:00:00 11,8 6,5 18 10 ONO 1014,8 10
09.12.2018 09:00:00 10,0 6,0 16 9 O - 10
09.12.2018 08:00:00 9,0 5,0 18 10 O - 10
09.12.2018 07:00:00 9,4 5,6 22 12 ONO 1013,8 10
09.12.2018 06:00:00 9,0 6,0 24 13 ONO - 10
09.12.2018 05:00:00 8,0 6,0 16 9 O - 10
09.12.2018 04:00:00 8,6 6,4 13 7 O 1012,9 10
09.12.2018 03:00:00 9,0 6,0 22 12 ONO - 10
09.12.2018 02:00:00 8,0 5,0 21 11 N - 10
09.12.2018 01:00:00 8,8 6,8 18 10 O 1012,8 10
09.12.2018 00:00:00 9,0 7,0 16 9 O - 10
08.12.2018 23:00:00 10,0 8,0 13 7 O - 10
08.12.2018 22:00:00 10,4 9,6 8 4 OSO 1012,5 10
08.12.2018 21:00:00 11,0 10,0 15 8 NO - 10
08.12.2018 20:00:00 11,0 10,0 13 7 NO - 10
08.12.2018 19:00:00 14,0 10,2 18 10 O 1010,5 10
08.12.2018 18:00:00 14,0 11,0 18 10 OSO - 10
08.12.2018 17:00:00 15,0 11,0 13 7 OSO - 10
08.12.2018 16:00:00 14,0 12,4 15 8 S 1010,4 10
08.12.2018 15:00:00 15,0 10,0 26 14 S - 10
08.12.2018 14:00:00 16,0 11,0 22 12 S - 10
08.12.2018 13:00:00 15,2 10,6 22 12 SSO 1012,2 10
08.12.2018 12:00:00 17,0 10,0 21 11 SSO - 10
08.12.2018 11:00:00 16,0 11,0 18 10 S - 10
08.12.2018 10:00:00 13,8 10,6 16 9 S 1014,4 10
08.12.2018 09:00:00 14,0 11,0 16 9 S - 10
08.12.2018 08:00:00 9,0 8,0 11 6 SSE - 10
08.12.2018 07:00:00 7,2 6,6 9 5 SSE 1016,6 10
08.12.2018 06:00:00 8,0 6,0 9 5 SE - 10
08.12.2018 05:00:00 6,0 5,0 9 5 SSE - 10
08.12.2018 04:00:00 6,6 5,9 8 4 SSE 1017,6 10
08.12.2018 03:00:00 8,0 7,0 9 5 SSE - 10
08.12.2018 02:00:00 8,0 8,0 8 4 SE - 10
08.12.2018 01:00:00 7,2 6,8 9 5 SE 1019,2 10
08.12.2018 00:00:00 8,0 7,0 5 3 SSE - 10
07.12.2018 23:00:00 8,0 7,0 5 3 SSE - 10
07.12.2018 22:00:00 8,0 7,7 5 3 SSE 1020,5 10
07.12.2018 21:00:00 8,0 8,0 8 4 SSE - 10
07.12.2018 20:00:00 8,0 8,0 8 4 S - 10
07.12.2018 19:00:00 8,8 7,7 4 2 N 1021,0 10
07.12.2018 18:00:00 10,0 9,0 4 2 ESE - 10
07.12.2018 17:00:00 12,0 9,0 5 3 ENE - 10
07.12.2018 16:00:00 14,0 8,6 4 2 N 1021,1 10
07.12.2018 15:00:00 14,0 8,0 5 3 NNE - 10
07.12.2018 14:00:00 15,0 9,0 8 4 O - 10
07.12.2018 13:00:00 14,4 8,6 4 2 N 1021,2 10
07.12.2018 12:00:00 14,0 9,0 5 3 N - 10
07.12.2018 11:00:00 14,0 9,0 9 5 N - 10
07.12.2018 10:00:00 11,6 9,4 5 3 NO 1022,5 10
07.12.2018 09:00:00 8,0 8,0 2 1 - - 10
07.12.2018 08:00:00 4,0 4,0 2 1 ONO - 10
07.12.2018 07:00:00 2,6 2,6 4 2 S 1022,1 10
07.12.2018 06:00:00 2,0 2,0 0 0 N - 10
07.12.2018 05:00:00 3,0 3,0 4 2 ONO - 10
07.12.2018 04:00:00 3,0 3,0 4 2 ONO 1021,8 10
07.12.2018 03:00:00 3,0 3,0 8 4 NO - 10
07.12.2018 02:00:00 4,0 4,0 8 4 NNO - 10
07.12.2018 01:00:00 4,2 3,9 8 4 NNO 1021,6 10
07.12.2018 00:00:00 5,0 4,0 8 4 NO - 10
06.12.2018 23:00:00 5,0 4,0 8 4 NO - 10
06.12.2018 22:00:00 4,8 4,5 5 3 NO 1021,2 10
06.12.2018 21:00:00 5,0 4,0 8 4 NO - 10
06.12.2018 20:00:00 6,0 4,0 5 3 NNO - 10
06.12.2018 19:00:00 7,0 4,7 8 4 NNO 1020,3 10
06.12.2018 18:00:00 8,0 5,0 8 4 NNO - 10
06.12.2018 17:00:00 9,0 4,0 8 4 NO - 10
06.12.2018 16:00:00 11,0 4,5 9 5 N 1020,2 10
06.12.2018 15:00:00 13,0 6,0 15 8 N - 10
06.12.2018 14:00:00 12,0 5,0 15 8 N - 10
06.12.2018 13:00:00 13,0 5,2 15 8 NNO 1021,1 10
06.12.2018 12:00:00 13,0 5,0 16 9 N - 10
06.12.2018 11:00:00 14,0 5,0 18 10 N - 10
06.12.2018 10:00:00 11,2 6,4 9 5 NNO 1022,0 10
06.12.2018 09:00:00 10,0 7,0 9 5 N - 10
06.12.2018 08:00:00 6,0 5,0 5 3 N - 10
06.12.2018 07:00:00 6,0 5,1 8 4 NO 1021,8 10
06.12.2018 06:00:00 7,0 6,0 11 6 O - 10
06.12.2018 05:00:00 8,0 6,0 11 6 NNO - 10
06.12.2018 04:00:00 7,8 4,9 8 4 NNO 1021,8 10
06.12.2018 03:00:00 7,0 3,0 11 6 N - 10
06.12.2018 02:00:00 8,0 3,0 9 5 NNO - 10
06.12.2018 01:00:00 7,6 4,9 9 5 NO 1022,4 10
06.12.2018 00:00:00 7,0 5,0 8 4 OSO - 10
05.12.2018 23:00:00 9,0 5,0 11 6 ONO - 10
05.12.2018 22:00:00 12,6 4,3 18 10 N 1021,3 10
05.12.2018 21:00:00 12,0 4,0 29 16 NNO - 10
05.12.2018 20:00:00 11,0 4,0 21 11 NNO - 10
05.12.2018 19:00:00 10,2 3,7 15 8 ONO 1021,6 10
05.12.2018 18:00:00 12,0 3,0 24 13 NNO - 10
05.12.2018 17:00:00 12,0 4,0 16 9 N - 10
05.12.2018 16:00:00 13,4 5,1 24 13 N 1020,7 10
05.12.2018 15:00:00 14,0 5,0 35 19 NNO - 10
05.12.2018 14:00:00 15,0 7,0 28 15 NNO - 10
05.12.2018 13:00:00 15,6 7,9 28 15 N 1020,1 10
05.12.2018 12:00:00 16,0 8,0 26 14 N - 10
05.12.2018 11:00:00 16,0 10,0 26 14 N - 10
05.12.2018 10:00:00 16,8 10,9 18 10 N 1019,7 10
05.12.2018 09:00:00 15,0 11,0 16 9 N - 10
05.12.2018 08:00:00 13,0 11,0 18 10 N - 10
05.12.2018 07:00:00 12,0 10,2 11 6 NNO 1018,2 10
05.12.2018 06:00:00 13,0 11,0 15 8 N - 10
05.12.2018 05:00:00 13,0 12,0 21 11 NNO - 10
05.12.2018 04:00:00 13,2 12,7 16 9 NNO 1015,6 7
05.12.2018 03:00:00 13,0 13,0 13 7 NNO - 7
05.12.2018 02:00:00 13,0 12,0 13 7 NO - 10

tt = Temperatura
td = dewpoint
ff = velocità del vento
dd = direzione del vento
ppp = reduced air pressure
vv = visibility

Stazioni seguenti

WeatherPro
AMSI
MeteoEarth